SCP
0 0 0 0 0 0 0 0 0 0 0 0 0 0 0 0 0 0 0 0 0 0 0 0 0 0 0 0 0 0 0 0 0 0 0 0 0 0 0 0 0 0 0
0 0 0 0 0 0 0 0 0 0 0 0 0 0 0 0 0 0 0 0 0 0 0 0 0 0 0 0 0 0 0 0 0 0 0 0 0 0 0 0 0 0 0
0 0 0 0 0 0 0 0 0 0 0 0 0 0 0 0 0 0 0 0 0 0 0 0 0 0 0 0 0 0 0 0 0 0 0 0 0 0 0 0 0 0 0
0 0 0 0 0 0 0 0 0 0 0 0 0 0 0 0 0 0 0 0 0 0 0 0 0 0 0 0 0 0 0 0 0 0 0 0 0 0 0 0 0 0 0
0 0 0 0 0 0 0 0 0 0 0 0 0 0 0 0 0 0 0 0 0 0 0 0 0 0 0 0 0 0 0 0 0 0 0 0 0 0 0 0 0 0 0
0 0 0 0 0 0 0 0 0 0 0 0 0 0 0 0 0 0 0 0 0 0 0 0 0 0 0 0 0 0 0 0 0 0 0 0 0 0 0 0 0 0 0
0 0 0 0 0 0 0 0 0 0 0 0 0 0 0 0 0 0 0 0 0 0 0 0 0 0 0 0 0 0 0 0 0 0 0 0 0 0 0 0 0 0 0
0 0 0 0 0 0 0 0 0 0 0 0 0 0 0 0 0 0 0 0 0 0 0 0 0 0 0 0 0 0 0 0 0 0 0 0 0 0 0 0 0 0 0
0 0 0 0 0 0 0 0 0 0 0 0 0 0 0 0 0 0 0 0 0 0 0 0 0 0 0 0 0 0 0 0 0 0 0 0 0 0 0 0 0 0 0
0 0 0 0 0 0 0 0 0 0 0 0 0 0 0 0 0 0 0 0 0 0 0 0 0 0 0 0 0 0 0 0 0 0 0 0 0 0 0 0 0 0 0
0 0 0 0 0 0 0 0 0 0 0 0 0 0 0 0 0 0 0 0 0 0 0 0 0 0 0 0 0 0 0 0 0 0 0 0 0 0 0 0 0 0 0
0 0 0 0 0 0 0 0 0 0 0 0 0 0 0 0 0 0 0 0 0 0 0 0 0 0 0 0 0 0 0 0 0 0 0 0 0 0 0 0 0 0 0
0 0 0 0 0 0 0 0 0 0 0 0 0 0 0 0 0 0 0 0 0 0 0 0 0 0 0 0 0 0 0 0 0 0 0 0 0 0 0 0 0 0 0
0 0 0 0 0 0 0 0 0 0 0 0 0 0 0 0 0 0 0 0 0 0 0 0 0 0 0 0 0 0 0 0 0 0 0 0 0 0 0 0 0 0 0
0 0 0 0 0 0 0 0 0 0 0 0 0 0 0 0 0 0 0 0 0 0 0 0 0 0 0 0 0 0 0 0 0 0 0 0 0 0 0 0 0 0 0
0 0 0 0 0 0 0 0 0 0 0 0 0 0 0 0 0 0 0 0 0 0 0 0 0 0 0 0 0 0 0 0 0 0 0 0 0 0 0 0 0 0 0
0 0 0 0 0 0 0 0 0 0 0 0 0 0 0 0 0 0 0 0 0 0 0 0 0 0 0 0 0 0 0 0 0 0 0 0 0 0 0 0 0 0 0
0 0 0 0 0 0 0 0 0 0 0 0 0 0 0 0 0 0 0 0 0 0 0 0 0 0 0 0 0 0 0 0 0 0 0 0 0 0 0 0 0 0 0
0 0 0 0 0 0 0 0 0 0 0 0 0 0 0 0 0 0 0 0 0 0 0 0 0 0 0 0 0 0 0 0 0 0 0 0 0 0 0 0 0 0 0
0 0 0 0 0 0 0 0 0 0 0 0 0 0 0 0 0 0 0 0 0 0 0 0 0 0 0 0 0 0 0 0 0 0 0 0 0 0 0 0 0 0 0
0 0 0 0 0 0 0 0 0 0 0 0 0 0 0 0 0 0 0 0 0 0 0 0 0 0 0 0 0 0 0 0 0 0 0 0 0 0 0 0 0 0 0
0 0 0 0 0 0 0 0 0 0 0 0 0 0 0 0 0 0 0 0 0 0 0 0 0 0 0 0 0 0 0 0 0 0 0 0 0 0 0 0 0 0 0
0 0 0 0 0 0 0 0 0 0 0 -0 0 0 0 0 0 0 0 0 0 0 0 0 0 0 0 0 0 0 0 0 0 0 0 0 0 0 0 0 0 0 0
0 0 0 0 0 0 0 0 0 -0 -0 -0 0 0 0 0 0 0 0 0 0 0 0 0 0 0 0 0 0 0 0 0 0 0 0 0 0 0 0 0 0 0 0
0 0 0 0 0 0 0 0 0 0 0 0 0 0 0 0 0 0 0 0 0 0 0 0 0 0 0 0 0 0 0 0 0 0 0 0 0 0 0 0 0 0 0
0 0 0 0 0 0 0 0 0 0 0 0 0 0 0 0 0 0 0 0 0 0 0 0 0 0 0 0 0 0 0 0 0 0 0 0 0 0 0 0 0 0 0
Wind_Speed
12 13 13 15 15 15 15 16 16 15 15 16 16 17 17 17 16 15 14 14 14 13 11 12 11 10 7 6 5 5 5 5 6 4 2 2 3 3 2 3 3 4 3
9 12 13 14 15 15 15 16 16 16 16 16 16 16 17 17 17 17 16 15 15 14 13 12 12 9 10 7 6 7 6 6 5 6 3 2 3 3 3 3 3 3 4
8 10 12 13 15 15 15 15 15 16 15 16 16 16 16 16 16 16 16 15 15 14 14 13 12 12 11 8 8 7 5 5 5 4 3 1 2 1 3 3 3 3 4
7 9 11 13 14 15 14 14 15 15 15 16 16 15 15 15 15 15 15 14 14 13 12 12 12 12 12 11 8 8 6 6 5 4 3 2 2 1 2 3 3 3 4
7 8 10 11 12 13 13 13 13 14 14 15 15 14 14 13 13 15 14 13 13 12 11 11 11 11 11 9 7 8 7 5 4 4 4 2 2 1 2 2 3 3 4
7 8 8 9 10 12 13 13 13 13 13 14 15 15 15 11 14 17 15 13 13 13 12 11 10 11 11 11 10 9 9 7 6 5 4 4 4 3 1 1 2 3 3
7 7 7 8 9 10 12 12 13 14 13 14 14 15 15 15 17 19 17 13 12 12 12 11 8 8 11 9 9 9 7 6 5 5 5 4 3 2 1 2 2 3 4
7 7 7 8 8 9 10 12 13 12 13 13 13 14 13 14 19 20 19 14 11 11 11 11 11 11 10 10 9 7 6 4 4 3 3 2 1 1 1 1 2 3 3
7 7 7 7 7 8 10 11 10 11 12 12 12 13 13 14 19 21 19 12 9 10 10 10 11 11 13 14 10 9 7 4 4 5 4 4 4 3 2 1 1 1 2
7 7 7 7 7 8 10 10 8 9 10 10 10 11 13 13 18 21 20 10 10 9 8 9 11 12 15 16 11 10 8 6 6 5 4 4 3 4 3 1 0 1 2
7 7 7 7 7 7 8 8 8 8 9 9 10 10 11 12 18 21 21 11 10 10 8 8 8 15 16 15 11 8 9 8 6 5 4 3 2 1 1 1 1 1 1
6 6 6 6 5 5 7 8 8 8 9 9 9 9 8 9 13 17 20 15 12 10 9 8 9 16 16 15 10 11 13 9 5 4 3 2 2 1 1 1 1 2 2
6 6 5 5 6 6 8 8 8 8 8 8 8 8 8 7 9 16 19 17 15 9 8 12 14 17 15 11 12 14 11 6 5 4 3 2 2 1 1 1 2 1 2
7 6 5 5 6 6 6 7 8 8 9 9 9 8 8 8 8 10 11 12 13 10 10 14 16 15 11 11 11 8 5 4 5 4 3 3 2 2 1 1 1 1 2
6 6 6 6 6 6 6 6 8 8 9 10 9 9 10 10 11 14 13 11 10 10 12 9 8 8 7 6 5 5 5 5 4 4 4 3 2 2 1 1 1 1 2
6 5 5 5 5 5 5 3 3 5 8 8 8 9 7 10 17 18 17 17 18 20 13 9 9 8 8 7 7 6 5 4 4 4 4 3 3 2 1 0 0 1 2
7 6 5 5 6 6 5 6 5 5 7 9 11 12 12 17 19 19 20 21 21 18 10 9 8 8 7 7 7 6 5 5 4 4 4 3 3 2 1 1 0 1 2
7 6 6 6 6 6 6 6 6 7 7 5 8 14 17 18 19 20 22 18 12 9 7 8 8 8 7 7 7 6 6 5 5 4 4 3 3 2 2 1 0 1 2
6 5 5 6 5 6 6 6 6 7 8 7 7 9 15 17 19 20 18 10 10 8 7 7 7 7 7 7 7 6 6 6 5 4 4 4 3 2 2 1 0 1 2
5 7 6 6 6 6 6 6 7 8 8 8 8 9 10 11 10 10 7 7 7 8 8 8 7 8 8 7 7 7 6 6 6 5 4 4 3 2 2 1 1 1 1
5 5 7 6 6 6 6 6 7 8 8 8 7 9 13 9 9 9 7 7 7 8 8 8 8 8 8 7 7 8 8 6 5 5 4 4 3 3 2 1 1 1 1
4 5 5 6 6 6 6 6 7 8 9 9 8 9 13 8 7 7 7 6 6 6 7 8 8 7 7 8 8 8 7 7 6 5 5 4 3 3 2 1 0 0 1
4 5 4 5 6 8 7 7 8 8 8 8 9 8 8 7 7 7 7 7 7 7 7 7 8 7 7 6 6 7 7 7 6 6 6 5 4 3 2 2 1 0 1
5 5 5 6 7 7 7 8 8 8 9 9 8 8 7 7 7 8 7 7 7 7 7 7 7 10 11 8 6 5 5 6 6 6 7 6 5 3 3 2 1 0 0
5 5 6 6 7 8 8 8 8 9 9 8 8 8 8 8 8 8 7 8 9 8 9 8 7 9 11 11 9 7 11 12 9 7 6 5 5 4 3 2 1 1 0
5 5 6 6 7 8 8 9 9 9 9 8 8 8 8 8 8 8 8 8 9 9 8 8 9 11 11 10 11 13 14 13 13 11 6 5 5 4 3 2 2 1 1
Wind_Direction
217 210 209 205 203 204 201 201 199 196 193 194 195 195 194 193 193 195 198 194 198 198 196 201 203 201 196 197 201 206 213 223 243 252 238 222 237 256 264 277 285 287 285
225 214 211 209 203 202 204 201 199 197 195 195 194 195 195 194 193 195 196 194 197 198 197 198 201 197 199 196 196 202 207 213 230 247 243 229 249 270 283 282 288 292 294
232 223 212 212 206 203 204 202 198 197 195 194 192 194 194 194 194 195 195 194 196 198 197 198 198 196 199 197 196 200 202 204 218 233 246 232 248 274 285 282 288 296 301
233 229 217 213 209 204 203 201 198 195 194 194 194 193 192 192 192 192 192 192 193 196 197 197 197 198 200 196 195 199 195 196 203 218 233 232 243 272 279 287 292 299 300
237 233 226 217 212 206 202 199 197 194 194 193 192 191 190 189 191 189 189 189 189 190 192 195 197 197 196 191 187 190 187 191 194 207 221 223 227 240 263 283 291 311 300
241 239 233 222 211 206 202 196 192 192 190 191 192 190 189 189 182 182 183 185 186 187 188 190 189 188 187 186 182 180 183 191 196 200 213 223 233 236 259 285 303 313 296
244 240 231 222 211 206 200 195 191 191 188 189 191 189 190 187 175 176 178 182 184 186 185 183 181 182 182 185 178 169 174 183 196 201 210 223 225 219 225 264 280 293 296
245 238 228 219 210 202 198 197 192 188 188 187 189 189 188 182 173 174 173 183 182 184 184 182 180 179 180 176 171 170 175 181 192 201 211 210 185 177 213 261 286 298 303
244 239 228 216 209 201 197 197 192 188 187 186 185 186 185 179 172 171 170 181 178 178 178 180 178 178 169 164 163 162 162 159 138 133 118 102 97 96 101 99 34 319 299
248 243 231 218 207 203 198 193 190 187 184 178 181 185 183 179 172 171 171 175 172 170 170 174 176 172 164 164 170 167 169 169 152 143 136 120 109 104 107 104 174 304 309
252 246 231 220 208 201 196 189 184 182 176 173 175 179 181 177 170 172 174 176 169 165 168 170 170 164 162 165 168 171 166 155 150 148 144 136 120 108 87 48 15 305 286
246 239 226 217 203 192 188 181 177 176 172 170 171 173 174 168 168 174 176 175 163 163 166 165 160 158 158 160 161 152 145 142 141 144 145 146 143 120 77 35 10 342 319
238 229 217 210 196 190 185 178 175 176 172 171 170 171 168 162 163 168 171 166 158 156 154 151 147 148 150 153 150 147 146 147 147 148 153 148 125 111 93 51 25 3 327
230 220 208 205 196 190 184 181 179 178 175 173 172 171 165 162 161 162 162 156 150 143 136 135 134 136 137 138 142 146 147 150 151 148 141 127 119 119 107 47 351 339 326
228 215 203 202 192 189 188 190 186 188 183 177 176 172 168 172 170 162 158 158 156 150 139 134 139 142 145 143 139 137 141 143 140 136 136 132 129 124 96 56 1 323 318
220 211 201 192 187 181 173 165 161 169 162 170 171 167 163 154 150 153 151 148 146 147 140 144 151 155 157 155 151 147 147 148 144 141 141 140 144 143 131 102 353 322 315
218 211 201 191 185 177 173 168 157 132 131 144 151 151 149 147 148 150 147 145 148 149 145 151 155 159 155 154 154 153 152 146 143 144 145 145 143 146 147 147 327 328 323
221 210 205 195 185 177 175 173 168 160 152 143 140 141 144 146 146 147 145 140 148 156 152 154 156 155 153 154 154 149 142 141 144 146 146 147 151 155 156 160 224 320 317
219 209 202 191 182 175 169 169 165 157 150 145 139 139 142 142 143 147 149 151 156 157 153 151 150 151 150 150 148 146 145 146 147 149 150 151 155 155 157 169 231 292 314
219 208 202 187 176 169 167 165 161 154 149 150 152 149 145 142 146 152 155 152 152 151 151 149 149 148 147 148 146 145 143 145 150 153 153 154 156 157 159 175 217 271 302
209 195 189 181 173 169 164 163 159 154 152 150 151 156 157 153 153 154 156 154 153 151 150 148 147 148 148 147 147 147 148 150 153 154 154 155 156 157 161 173 195 279 320
204 194 187 177 167 162 157 158 152 149 146 145 146 146 147 144 145 148 148 145 142 141 144 145 146 148 152 153 152 151 152 154 156 157 155 154 156 157 159 158 154 336 337
197 186 181 169 159 154 154 151 147 148 148 150 149 147 149 147 144 143 142 140 138 138 138 139 140 141 140 140 145 151 155 161 161 159 157 156 157 158 156 149 147 179 332
186 183 176 164 158 158 154 149 148 147 148 149 149 148 147 144 140 138 138 137 136 135 136 137 139 142 141 138 137 138 140 142 145 151 154 154 154 153 149 145 154 162 303
179 177 169 164 158 155 150 148 148 148 148 147 147 144 142 140 138 137 137 137 135 133 134 133 134 138 141 139 138 139 143 143 143 144 148 148 146 145 145 142 143 133 50
174 168 161 158 156 152 151 151 151 150 149 146 145 145 143 141 140 140 140 138 136 135 134 132 134 136 138 136 139 143 146 147 146 145 144 143 144 144 144 141 139 129 103